Regional Weather Roundup
Issued by NWS

Home | Current Version | Previous Version | Graphics & Text | Print | Product List | Glossary On
Versions: 1 2 3 4 5 6 7 8 9 10 11 12 13 14 15 16 17 18 19 20 21 22 23 24 25 26 27 28 29 30 31 32 33 34 35 36 37 38 39 40 41 42 43 44 45 46 47 48 49 50
000
ASUS43 KBIS 211620
RWRND

NORTH DAKOTA REGIONAL WEATHER ROUNDUP
NATIONAL WEATHER SERVICE BISMARCK ND
1100 AM CDT THU AUG 21 2014

NOTE: "FAIR" INDICATES FEW OR NO CLOUDS BELOW 12,000 FEET WITH NO
SIGNIFICANT WEATHER AND/OR OBSTRUCTIONS TO VISIBILITY.


NDZ001>003-009>011-017-211700-
NORTHWEST NORTH DAKOTA

CITY           SKY/WX    TMP DP  RH WIND       PRES   REMARKS
WILLISTON      CLOUDY    67  60  78 N12       29.93S
MINOT          CLOUDY    69  63  81 NW13      29.84R
MINOT AFB      CLOUDY    66  66  99 NW14      29.85R
$$

NDZ018>021-031>035-040>046-211700-
SOUTHWEST NORTH DAKOTA

CITY           SKY/WX    TMP DP  RH WIND       PRES   REMARKS
BISMARCK       PTSUNNY   73  65  75 NW12      29.86R
DICKINSON      MOSUNNY   69  63  81 NW10      29.91S
GARRISON         N/A     68  64  87 NW8       29.86R
HETTINGER ARPT SUNNY     72  63  73 NW8       29.94R
$$

NDZ004>008-012>016-024-026-027-054-211700-
NORTHEAST NORTH DAKOTA

CITY           SKY/WX    TMP DP  RH WIND       PRES   REMARKS
GRAND FORKS    CLOUDY    74  67  78 SE12      29.76F
GRND FRKS AFB  CLOUDY    72  71  95 E3        29.78S
DEVILS LAKE    CLOUDY    72  64  78 SE6       29.77F
$$

NDZ022-023-025-028>030-036>039-047>053-211700-
SOUTHEAST NORTH DAKOTA

CITY           SKY/WX    TMP DP  RH WIND       PRES   REMARKS
FARGO          CLOUDY    73  68  84 E7        29.76S
JAMESTOWN      PTSUNNY   73  67  81 W7        29.78R
$$




USA.gov is the U.S. government's official web portal to all federal, state and local government web resources and services.